Showing default

FALCONSAT-10, 58291

Orbit data source: Space-Track

FALCONSAT-10, 58291 is a payload satellite owned by USAF Academy (US) in SSO that was launched on Sat, 11 Nov 2023 UTC via an FALCON 9 launch vehicle from the Air Force Western Test Range (AFWTR). Payload-class satellites include a variety of spacecraft equipped with specific instruments for various scientific and technological missions. These include communications satellites like Starlink; space stations such as the ISS; scientific satellites like the Hubble; Earth observation satellites from companies like Planet Labs, Umbra, and HawkEye 360; GPS; miniature CubeSats for education and research; and military/defense satellites.

Loading next visibility...
Identifier
58291, 2023-174AM
Orbit
SSO
Country
Flag of USUS
Related business
Manufacturer
USAF Academy
Mission
Operational Defense Technology
Bus & Motor
FALCONSAT, Unknown motor
Mass
140 kg wet, 140 kg dry
Launch date (UTC)
2023-11-11 (2 years ago)
Launch vehicle
FALCON 9
Launch site
Air Force Western Test Range (AFWTR)
Object type
Payload
Rocket body
Debris
Shape & HBR
Box, 0.5 m
Radar Cross Section
0.780 m², Medium (>0.1 m² and < 1m²)

Expand to show TLE details & history
Last TLE update: 7 hours ago

TLE from 7 hours ago
0 FALCONSAT-10
1 58291U 23174AM  25297.74387942  .00007398  00000-0  30208-3 0  9994
2 58291  97.4064  11.2968 0007631 303.6358  56.4151 15.24666890108850
Epoch: 2025-10-24T17:51Z
TLE epoch observation values (Epoch: 2025-10-24T17:51:11.181Z)
Latitude
-0.00006°
Longitude
70.11583°
Altitude
491.985 km
Speed
7.62 km/s
True Right ascension
00h 45m 11s
True Declination
0° 00' 00"
Sunlit
Object was in full shadow at epoch
Visualization orbit readout
Latitude
Unknown
Longitude
Unknown
Altitude
Unknown
Speed
Unknown
Apparent Right ascension
Unknown
Apparent Declination
Unknown
Sunlit
N/A
Visualization observer readout
Local Sidereal Time
19:39:13
Azimuth
Unknown
Elevation
Unknown
Doppler factor
Unknown
Orbital elements
Apogee altitude
493.986 km
Perigee altitude
483.505 km
Semi-major axis
6,866.883 km
Eccentricity
0.00076
Inclination
97.4064°
RAAN
11.2968°
Arg. of periapsis
303.6358°
True anomaly
56.48799°
Mean anomaly
56.4151°
Eccentric anomaly
56.45154°
Mean motion
3.8142 °/min
Orbital period
94.38 mins
BSTAR
0.00030208
Loading maneuver chart data...
Computing Atmospheric mass density...

Documentation

Showing up to 5 results
|